Granite Falls, MN

10:55 PM CDT on July 23, 2016 (GMT -0500)
Granite Falls

Weather History for KGDB - November, 2012

Change the Weather History Date:

Sunday, November 25, 2012

  Actual Average (KMVE) Record (KMVE)
Temperature  
Mean Temperature 27 °F -  
Max Temperature 33 °F 35 °F 68 °F (1960)
Min Temperature 21 °F 18 °F -18 °F (1977)
Degree Days  
Heating Degree Days 38    
Moisture  
Dew Point 20 °F    
Average Humidity 72    
Maximum Humidity 84    
Minimum Humidity 61    
Precipitation  
Precipitation 0.00 in - - ()
Sea Level Pressure  
Sea Level Pressure 30.02 in    
Wind  
Wind Speed 13 mph (NW)    
Max Wind Speed 20 mph    
Max Gust Speed 28 mph    
Visibility 10 miles    
Events      
Averages and records for this station are not official NWS values.
T = Trace of Precipitation, MM = Missing Value Source: NWS Daily Summary

Daily Weather History Graph

Daily Weather History Graph

Search for Another Location

Airport or City:

Trip Planner

Search our weather history database for the weather conditions in past years. The results will help you decide how hot, cold, wet, or windy it might be!

Date:

Astronomy

Nov. 25, 2012 Rise Set
Actual Time 7:32 AM CST 4:45 PM CST
Civil Twilight 7:00 AM CST 5:18 PM CST
Nautical Twilight 6:24 AM CST 5:54 PM CST
Astronomical Twilight 5:49 AM CST 6:29 PM CST
Moon 3:07 PM CST (11/25) 4:43 AM CST (11/25)
Length of Visible Light 10h 17m
Length of Day
9h 12m
Waxing Gibbous, 93% of the Moon is Illuminated
Nov 25
Waxing Gibbous
Nov 28
Full
Dec 6
Last Quarter
Dec 13
New
Dec 19
First Quarter

Hourly Weather History & Observations

Time (CST) Temp. Windchill Dew Point Humidity Pressure Visibility Wind Dir Wind Speed Gust Speed Precip Events Conditions
12:11 AM 25.9 °F 16.6 °F 18.9 °F 75% 29.85 in 10.0 mi West 9.2 mph - N/A   Clear
12:31 AM 26.4 °F 16.6 °F 19.4 °F 75% 29.86 in 10.0 mi WNW 10.4 mph - N/A   Clear
12:51 AM 28.6 °F 17.7 °F 21.6 °F 75% 29.86 in 10.0 mi WNW 13.8 mph - N/A   Clear
1:11 AM 30.2 °F 19.8 °F 23.4 °F 76% 29.86 in 10.0 mi WNW 13.8 mph 18.4 mph N/A   Mostly Cloudy
1:31 AM 31.5 °F 21.8 °F 24.8 °F 76% 29.87 in 10.0 mi NW 12.7 mph - N/A   Overcast
1:51 AM 31.8 °F 21.4 °F 25.7 °F 78% 29.88 in 10.0 mi NW 15.0 mph 23.0 mph N/A   Overcast
2:10 AM 31.8 °F 20.2 °F 25.7 °F 78% 29.90 in 10.0 mi NW 18.4 mph 25.3 mph N/A   Overcast
2:31 AM 30.9 °F 18.7 °F 25.3 °F 80% 29.90 in 10.0 mi NW 19.6 mph 25.3 mph N/A   Overcast
2:51 AM 30.6 °F 18.6 °F 25.3 °F 81% 29.91 in 10.0 mi NW 18.4 mph 23.0 mph N/A   Overcast
3:11 AM 30.0 °F 17.9 °F 24.8 °F 81% 29.92 in 10.0 mi NW 18.4 mph 27.6 mph N/A   Overcast
3:31 AM 29.3 °F 18.2 °F 24.4 °F 82% 29.91 in 10.0 mi NW 15.0 mph 23.0 mph N/A   Overcast
3:51 AM 28.4 °F 16.6 °F 23.7 °F 83% 29.93 in 10.0 mi NNW 16.1 mph 23.0 mph N/A   Overcast
4:11 AM 27.5 °F 14.6 °F 23.0 °F 83% 29.94 in 10.0 mi NNW 18.4 mph 23.0 mph N/A   Overcast
4:31 AM 27.1 °F 14.9 °F 22.6 °F 83% 29.95 in 10.0 mi NW 16.1 mph 20.7 mph N/A   Overcast
4:51 AM 26.6 °F 14.3 °F 22.1 °F 83% 29.95 in 10.0 mi NW 16.1 mph 20.7 mph N/A   Overcast
5:11 AM 26.2 °F 14.2 °F 21.7 °F 83% 29.95 in 10.0 mi WNW 15.0 mph 20.7 mph N/A   Overcast
5:31 AM 25.7 °F 14.6 °F 21.2 °F 83% 29.96 in 10.0 mi NNW 12.7 mph - N/A   Overcast
5:51 AM 25.5 °F 13.3 °F 21.0 °F 83% 29.96 in 10.0 mi NW 15.0 mph - N/A   Overcast
6:11 AM 25.5 °F 14.3 °F 20.8 °F 82% 29.97 in 10.0 mi WNW 12.7 mph - N/A   Overcast
6:30 AM 25.3 °F 14.1 °F 20.8 °F 83% 29.98 in 10.0 mi NW 12.7 mph - N/A   Overcast
6:51 AM 24.8 °F 14.6 °F 20.3 °F 83% 29.98 in 10.0 mi NW 10.4 mph - N/A   Overcast
7:11 AM 24.6 °F 13.8 °F 20.3 °F 84% 29.99 in 10.0 mi NW 11.5 mph 18.4 mph N/A   Overcast
7:51 AM 24.3 °F 13.9 °F 19.4 °F 82% 30.00 in 10.0 mi NW 10.4 mph 16.1 mph N/A   Overcast
8:11 AM 24.1 °F 14.4 °F 19.4 °F 82% 30.01 in 10.0 mi NW 9.2 mph - N/A   Overcast
8:31 AM 24.4 °F 13.0 °F 19.4 °F 81% 30.02 in 10.0 mi WNW 12.7 mph - N/A   Overcast
8:51 AM 24.6 °F 13.2 °F 19.4 °F 81% 30.02 in 10.0 mi WNW 12.7 mph - N/A   Overcast
9:11 AM 24.4 °F 14.9 °F 19.0 °F 80% 30.03 in 10.0 mi WNW 9.2 mph - N/A   Overcast
9:31 AM 24.6 °F 12.7 °F 19.0 °F 79% 30.03 in 10.0 mi West 13.8 mph - N/A   Overcast
9:51 AM 24.8 °F 12.9 °F 18.5 °F 77% 30.03 in 10.0 mi WNW 13.8 mph - N/A   Overcast
10:11 AM 25.7 °F 14.0 °F 19.2 °F 76% 30.05 in 10.0 mi West 13.8 mph - N/A   Overcast
10:31 AM 25.9 °F 15.3 °F 19.2 °F 76% 30.04 in 10.0 mi WNW 11.5 mph - N/A   Overcast
10:51 AM 27.0 °F 15.6 °F 19.8 °F 74% 30.04 in 10.0 mi West 13.8 mph - N/A   Overcast
11:11 AM 27.7 °F 18.2 °F 20.1 °F 73% 30.03 in 10.0 mi WNW 10.4 mph - N/A   Scattered Clouds
11:31 AM 28.8 °F 19.0 °F 20.3 °F 71% 30.03 in 10.0 mi WNW 11.5 mph - N/A   Clear
11:51 AM 30.2 °F 20.8 °F 20.7 °F 68% 30.03 in 10.0 mi West 11.5 mph - N/A   Clear
12:11 PM 30.9 °F 21.2 °F 21.0 °F 67% 30.02 in 10.0 mi WNW 12.7 mph 18.4 mph N/A   Scattered Clouds
12:30 PM 32.0 °F 22.1 °F 21.2 °F 64% 30.03 in 10.0 mi WNW 13.8 mph 19.6 mph N/A   Scattered Clouds
12:51 PM 31.8 °F 23.9 °F 20.8 °F 64% 30.02 in 10.0 mi NW 9.2 mph - N/A   Scattered Clouds
1:11 PM 32.0 °F 23.0 °F 21.2 °F 64% 30.02 in 10.0 mi WNW 11.5 mph - N/A   Mostly Cloudy
1:31 PM 32.2 °F 22.3 °F 21.7 °F 65% 30.02 in 10.0 mi WNW 13.8 mph 17.3 mph N/A   Overcast
1:51 PM 32.4 °F 23.0 °F 21.7 °F 65% 30.02 in 10.0 mi WNW 12.7 mph - N/A   Scattered Clouds
2:11 PM 32.5 °F 22.7 °F 21.9 °F 65% 30.02 in 10.0 mi WNW 13.8 mph - N/A   Mostly Cloudy
2:31 PM 32.9 °F 23.2 °F 21.7 °F 64% 30.01 in 10.0 mi WNW 13.8 mph - N/A   Mostly Cloudy
2:51 PM 33.3 °F 24.1 °F 21.6 °F 62% 30.01 in 10.0 mi NW 12.7 mph 17.3 mph N/A   Scattered Clouds
3:11 PM 33.1 °F 23.9 °F 21.4 °F 62% 30.02 in 10.0 mi WNW 12.7 mph - N/A   Clear
3:31 PM 33.4 °F 23.5 °F 21.2 °F 61% 30.02 in 10.0 mi WNW 15.0 mph 18.4 mph N/A   Mostly Cloudy
3:51 PM 32.2 °F 24.4 °F 21.2 °F 64% 30.03 in 10.0 mi WNW 9.2 mph - N/A   Mostly Cloudy
4:11 PM 32.5 °F 24.2 °F 21.2 °F 63% 30.04 in 10.0 mi WNW 10.4 mph - N/A   Mostly Cloudy
4:31 PM 32.4 °F 24.6 °F 21.2 °F 63% 30.05 in 10.0 mi NW 9.2 mph - N/A   Overcast
4:51 PM 32.4 °F 24.6 °F 20.5 °F 62% 30.05 in 10.0 mi WNW 9.2 mph - N/A   Overcast
5:11 PM 32.2 °F 27.7 °F 20.8 °F 63% 30.05 in 10.0 mi WNW 4.6 mph - N/A   Overcast
5:51 PM 32.0 °F 23.0 °F 21.0 °F 64% 30.06 in 10.0 mi WNW 11.5 mph - N/A   Overcast
6:11 PM 30.9 °F 20.2 °F 21.2 °F 67% 30.08 in 10.0 mi NNW 15.0 mph 20.7 mph N/A   Overcast
6:31 PM 29.5 °F 19.9 °F 19.9 °F 68% 30.08 in 10.0 mi NNW 11.5 mph - N/A   Overcast
6:51 PM 28.9 °F 18.6 °F 18.5 °F 65% 30.09 in 10.0 mi NNW 12.7 mph 17.3 mph N/A   Overcast
7:11 PM 28.0 °F 17.0 °F 18.5 °F 67% 30.10 in 10.0 mi NNW 13.8 mph 17.3 mph N/A   Overcast
7:31 PM 28.0 °F 17.5 °F 18.5 °F 67% 30.10 in 10.0 mi NNW 12.7 mph - N/A   Overcast
7:51 PM 27.9 °F 17.8 °F 17.8 °F 66% 30.11 in 10.0 mi NNW 11.5 mph 16.1 mph N/A   Overcast
8:11 PM 27.9 °F 18.4 °F 17.4 °F 65% 30.11 in 10.0 mi North 10.4 mph - N/A   Overcast
8:31 PM 27.5 °F 15.4 °F 17.2 °F 65% 30.13 in 10.0 mi North 16.1 mph - N/A   Overcast
8:51 PM 27.1 °F 17.5 °F 15.4 °F 61% 30.14 in 10.0 mi North 10.4 mph - N/A   Overcast
9:11 PM 26.6 °F 18.2 °F 15.1 °F 62% 30.15 in 10.0 mi NNW 8.1 mph - N/A   Overcast
9:51 PM 26.2 °F 15.8 °F 14.7 °F 62% 30.17 in 10.0 mi NNW 11.5 mph 17.3 mph N/A   Overcast
10:11 PM 25.7 °F 15.1 °F 14.7 °F 63% 30.18 in 10.0 mi NNW 11.5 mph - N/A   Overcast
10:30 PM 25.5 °F 16.2 °F 15.3 °F 65% 30.18 in 10.0 mi NW 9.2 mph - N/A   Overcast
10:51 PM 24.1 °F 13.7 °F 15.4 °F 70% 30.20 in 10.0 mi NW 10.4 mph - N/A   Overcast
11:10 PM 23.0 °F 10.1 °F 13.5 °F 67% 30.21 in 10.0 mi NW 15.0 mph 19.6 mph N/A   Overcast
11:31 PM 21.9 °F 8.7 °F 12.6 °F 67% 30.23 in 10.0 mi NW 15.0 mph 18.4 mph N/A   Overcast
11:51 PM 21.0 °F 7.1 °F 11.3 °F 66% 30.24 in 10.0 mi NNW 16.1 mph 20.7 mph N/A   Overcast